Wind_Speed
11 13 15 16 18 20 21 21 22 23 23 23 24 24 24 25 26 26 26 27 26 26 26 25 25 25 26 26 25 24 23 23 23 24 24 23 23 23 23 24 25 25 26
7 8 10 12 13 14 15 15 17 17 18 18 18 18 19 19 21 22 24 25 25 25 23 22 22 22 23 23 22 22 21 22 22 23 23 23 23 22 23 23 24 25 26
4 5 6 7 9 10 11 12 12 11 11 12 12 13 14 15 15 16 18 19 20 20 20 20 20 20 20 20 20 20 21 21 21 22 22 22 23 23 23 23 24 24 25
3 2 2 3 3 5 6 8 8 8 7 6 6 8 9 10 10 12 13 14 15 17 17 18 19 19 19 18 18 19 19 19 20 21 22 22 23 23 23 23 24 24 24
6 4 3 3 3 3 3 5 6 6 5 5 5 5 6 8 9 10 11 12 13 14 15 15 15 15 16 16 16 17 18 19 20 21 21 22 22 23 23 24 24 24 24
6 6 5 4 4 4 4 4 4 4 5 5 6 6 6 7 7 8 8 10 11 11 12 12 13 13 13 14 15 16 18 18 19 20 20 21 22 22 23 23 23 23 23
8 7 6 5 5 4 4 4 5 6 6 7 7 8 9 9 9 9 10 10 11 12 12 13 13 13 14 15 16 16 17 18 19 19 20 20 21 21 22 22 22 22 22
9 8 7 6 5 5 5 6 7 7 7 8 9 9 10 10 11 12 12 13 14 14 14 14 15 15 15 15 16 16 17 18 18 18 18 19 19 20 20 21 21 21 22
12 10 9 8 7 6 6 7 7 8 9 9 10 11 12 12 13 13 13 14 14 15 15 15 15 15 14 15 15 15 15 15 16 16 16 17 18 18 19 19 19 20 20
15 13 11 10 8 8 7 6 6 7 8 9 10 11 12 13 14 15 15 15 15 15 15 15 14 14 14 14 14 14 15 15 15 15 15 15 16 17 18 18 18 18 18
17 15 14 12 11 10 9 7 7 7 7 8 10 11 11 12 13 14 15 15 15 15 14 15 14 14 13 13 13 13 13 13 13 14 14 14 15 15 15 15 15 16 16
18 18 16 15 14 13 11 10 9 8 7 7 8 9 9 10 11 12 13 14 14 14 14 14 14 13 12 12 12 12 12 12 12 12 12 13 13 13 13 13 13 14 15
20 19 18 17 16 14 13 12 10 9 8 7 6 6 6 7 8 9 10 11 12 12 12 12 12 12 11 10 11 10 10 10 10 10 11 11 11 11 11 12 13 13 14
21 20 19 18 18 17 15 14 13 12 10 8 7 6 5 4 3 4 5 7 8 9 9 9 9 9 9 9 9 9 9 9 9 9 9 9 9 10 11 11 12 12 13
21 20 20 19 19 18 17 16 15 15 13 11 9 8 6 4 3 1 1 2 3 5 6 6 6 7 7 7 7 7 6 6 6 6 7 7 8 8 9 9 10 11 11
21 20 20 20 19 19 18 17 17 16 15 14 13 11 10 8 7 5 4 4 3 3 4 4 3 3 4 4 4 4 3 3 3 4 4 5 5 6 7 8 8 9 10
21 21 20 20 19 19 19 18 18 17 17 16 15 14 12 11 10 9 8 7 6 6 5 4 3 3 3 3 2 1 1 0 1 2 3 3 4 5 6 7 8 9 10
20 20 20 20 20 20 19 19 19 18 17 17 17 16 15 14 13 12 11 10 9 8 8 7 7 6 5 4 4 3 3 3 3 3 4 4 4 5 6 7 8 9 10
19 20 20 20 20 20 19 19 19 19 18 18 17 17 16 16 15 14 14 13 12 11 10 10 9 8 7 7 6 6 5 5 5 5 6 6 6 6 7 8 8 9 10
18 19 19 20 20 20 19 19 18 18 18 17 17 17 17 16 16 15 15 14 13 12 12 11 11 10 10 10 9 8 8 8 7 7 7 7 7 7 8 8 9 10 11
16 17 17 18 19 19 19 18 18 18 18 17 16 16 16 16 15 15 15 14 14 13 13 13 12 12 11 10 10 9 8 8 8 7 8 8 8 8 9 9 10 10 11
14 14 15 16 17 17 17 17 17 17 16 16 16 15 15 15 15 14 14 14 14 13 13 12 12 12 11 11 11 10 10 9 9 9 9 9 9 9 9 10 10 11 12
12 12 13 13 14 15 15 15 15 15 15 15 15 14 13 13 13 13 13 13 13 12 12 12 11 11 11 10 10 10 9 9 9 9 9 9 9 9 10 10 11 11 12
9 10 11 11 12 12 13 13 13 13 13 13 13 12 12 12 12 11 11 11 11 11 11 10 10 10 10 10 10 10 9 9 9 9 9 9 9 10 10 10 11 12 12
9 9 9 9 10 10 10 11 11 11 11 11 11 10 10 10 10 10 10 10 9 9 9 9 9 9 9 9 9 9 9 9 9 9 9 9 10 10 10 11 11 12 13
10 9 9 9 8 8 9 9 9 9 9 9 9 8 8 8 8 8 8 8 8 8 8 8 8 8 8 8 8 8 8 8 8 8 8 9 9 10 11 11 12 12 13
Wind_Direction
264 259 256 257 259 260 261 259 260 260 262 262 257 256 254 253 251 251 248 245 243 243 243 244 243 239 238 239 240 244 248 252 255 260 263 265 267 269 270 271 272 272 274
279 269 261 256 256 257 258 259 261 261 261 261 256 254 252 249 249 246 243 242 240 240 241 240 238 238 238 239 242 245 249 252 256 261 263 266 268 270 270 272 273 273 274
295 286 270 262 259 258 257 255 260 263 263 260 255 251 246 243 241 239 241 239 237 237 237 238 238 239 239 240 243 246 250 254 258 261 263 265 268 270 271 273 274 274 274
352 334 327 303 282 266 253 251 254 260 261 253 246 243 238 235 233 234 233 233 236 239 241 241 239 240 239 240 244 249 253 256 259 262 264 266 268 271 272 273 274 275 275
19 14 359 344 333 310 276 260 257 254 251 244 240 233 232 231 230 229 232 236 239 240 241 239 238 240 242 246 250 253 257 259 261 263 265 267 269 271 273 274 275 276 276
12 8 359 344 330 321 306 292 272 263 265 259 254 248 241 238 234 233 232 234 237 239 240 241 244 247 251 253 256 258 259 260 263 265 267 269 271 273 274 274 276 277 278
2 357 352 343 332 321 311 293 277 268 262 261 261 257 253 251 250 246 244 243 242 245 247 248 249 252 254 256 258 260 260 261 263 266 269 271 273 274 275 275 276 278 278
10 8 3 354 340 325 312 300 287 281 276 272 268 266 264 260 256 254 251 249 247 249 250 252 253 256 258 259 260 260 262 263 264 267 270 272 274 276 276 277 277 278 279
20 14 8 1 352 339 323 304 292 282 276 273 272 269 266 261 258 255 252 250 248 248 251 254 256 258 259 260 261 261 262 264 266 269 273 275 277 278 278 278 278 279 281
25 22 17 10 2 353 343 330 311 296 286 280 276 271 267 262 259 256 254 252 250 249 249 251 253 256 258 259 261 262 264 266 268 271 274 276 278 280 280 280 280 282 283
28 26 25 22 18 12 4 353 339 321 304 291 284 278 272 265 260 255 253 252 250 249 248 247 248 253 257 258 259 262 265 267 269 272 274 276 279 282 283 284 285 286 287
33 32 31 29 25 21 15 7 356 343 327 311 298 288 280 271 262 256 251 249 247 246 245 245 246 249 253 256 258 262 265 268 271 274 277 280 283 285 288 289 291 293 295
35 35 33 31 29 26 24 20 14 5 356 344 329 314 298 283 268 256 249 245 244 243 242 243 246 248 250 253 256 261 264 267 273 278 281 284 287 290 293 296 300 301 303
36 35 35 34 33 31 30 28 26 23 20 15 7 355 340 320 294 263 245 237 234 232 232 235 239 242 245 250 255 259 265 270 275 281 285 287 292 297 300 305 308 311 311
35 35 35 35 35 34 34 33 33 32 31 29 28 26 26 27 28 37 169 198 207 211 215 222 226 232 240 244 248 255 264 272 278 284 289 294 300 306 311 315 318 319 320
35 34 34 35 36 36 36 35 36 36 37 38 41 43 47 52 61 72 87 105 124 148 170 184 196 208 217 222 233 243 254 272 287 298 306 311 317 323 328 331 333 335 335
35 35 35 36 36 36 36 37 38 39 41 43 46 50 55 59 66 73 79 88 98 107 116 123 124 127 139 157 163 158 143 346 338 343 350 355 359 360 355 350 348 350 350
35 36 37 37 38 37 38 38 40 42 44 47 50 54 59 64 68 72 77 83 88 92 94 97 99 101 101 103 104 99 86 70 58 52 45 35 27 18 11 9 7 7 6
35 36 37 37 37 38 39 39 41 44 47 50 54 57 60 64 67 71 75 79 84 88 89 89 89 88 88 89 88 87 83 77 71 65 56 48 40 32 25 21 17 15 14
32 34 35 35 36 37 38 39 41 44 47 51 54 57 60 62 65 69 72 76 78 81 83 83 83 84 85 85 84 83 80 75 69 62 56 50 45 39 34 30 26 23 20
27 29 31 33 34 35 37 39 41 43 46 49 52 55 58 60 63 66 69 73 75 77 79 80 80 80 80 79 78 76 74 69 65 61 56 52 47 41 37 33 29 24 20
20 23 25 28 30 32 35 37 39 41 43 46 49 52 55 58 61 64 66 69 71 73 75 76 75 74 74 74 73 71 69 66 63 58 53 48 43 39 35 30 27 23 20
9 13 17 21 24 26 29 31 33 36 39 43 46 49 52 55 58 61 63 65 67 69 72 72 71 71 71 70 67 64 62 59 55 53 49 45 41 36 31 27 24 21 19
353 359 4 9 14 18 21 24 27 30 33 37 41 44 48 52 55 57 59 62 64 67 68 68 68 68 68 66 64 61 59 57 54 52 48 44 38 33 28 25 23 21 20
331 337 344 350 356 3 10 15 19 23 26 29 33 37 42 46 50 52 55 57 59 62 64 65 66 65 64 61 59 57 55 53 50 46 42 37 33 29 25 23 21 19 17
311 314 318 324 332 341 350 359 7 12 16 19 23 28 33 38 42 44 47 50 53 56 58 60 60 59 57 54 52 50 48 46 42 37 32 27 23 20 18 17 15 14 12
Height
5778 5779 5780 5782 5783 5784 5785 5786 5787 5788 5789 5789 5790 5791 5792 5794 5796 5798 5799 5801 5803 5806 5808 5810 5812 5814 5816 5819 5821 5823 5825 5827 5828 5829 5829 5830 5830 5830 5829 5829 5828 5827 5826
5776 5776 5777 5778 5779 5779 5780 5781 5782 5782 5783 5783 5783 5785 5786 5788 5789 5791 5793 5795 5797 5799 5801 5803 5806 5808 5810 5813 5815 5817 5819 5820 5822 5822 5823 5823 5824 5823 5823 5822 5821 5820 5819
5775 5775 5775 5775 5776 5776 5777 5777 5778 5778 5778 5778 5779 5780 5781 5783 5784 5786 5788 5790 5792 5794 5796 5798 5801 5803 5805 5807 5809 5811 5813 5814 5815 5816 5817 5817 5817 5817 5816 5816 5815 5814 5812
5775 5774 5774 5774 5774 5774 5774 5775 5775 5775 5775 5776 5776 5777 5778 5779 5781 5782 5784 5786 5788 5790 5792 5794 5796 5798 5800 5802 5804 5806 5807 5809 5810 5810 5810 5810 5811 5810 5810 5809 5808 5807 5806
5776 5775 5774 5774 5774 5773 5773 5773 5773 5773 5774 5774 5775 5775 5776 5777 5778 5780 5782 5783 5785 5787 5788 5790 5792 5793 5795 5797 5799 5800 5802 5803 5804 5804 5804 5804 5804 5804 5803 5803 5802 5801 5799
5777 5776 5775 5774 5773 5773 5772 5772 5772 5772 5772 5773 5773 5774 5774 5775 5777 5778 5779 5781 5782 5784 5785 5787 5788 5789 5791 5792 5794 5795 5797 5798 5798 5799 5799 5799 5798 5798 5797 5796 5796 5795 5793
5777 5776 5775 5774 5773 5772 5771 5771 5771 5771 5771 5771 5772 5772 5773 5774 5775 5776 5777 5778 5780 5781 5782 5783 5784 5786 5787 5788 5790 5791 5792 5792 5793 5793 5793 5793 5793 5792 5791 5790 5790 5789 5787
5777 5776 5774 5773 5772 5771 5771 5770 5770 5769 5769 5769 5769 5770 5770 5771 5772 5773 5774 5776 5777 5777 5779 5780 5781 5782 5783 5784 5785 5786 5787 5787 5788 5788 5788 5787 5787 5786 5786 5785 5784 5783 5782
5778 5776 5775 5773 5772 5771 5770 5769 5768 5767 5767 5767 5767 5767 5767 5768 5768 5769 5770 5772 5773 5774 5775 5776 5777 5778 5779 5780 5781 5782 5782 5783 5783 5783 5783 5782 5782 5781 5780 5780 5779 5778 5776
5780 5777 5775 5773 5771 5770 5769 5767 5766 5765 5765 5764 5764 5764 5764 5764 5764 5765 5766 5768 5769 5770 5771 5772 5773 5774 5775 5776 5777 5777 5778 5778 5778 5778 5778 5778 5777 5777 5776 5775 5774 5773 5771
5781 5779 5776 5774 5772 5770 5768 5766 5765 5764 5762 5762 5761 5760 5760 5760 5760 5761 5762 5763 5764 5766 5767 5768 5769 5771 5772 5772 5773 5774 5774 5774 5774 5774 5774 5774 5773 5773 5772 5770 5769 5768 5767
5784 5781 5778 5775 5773 5770 5768 5766 5764 5762 5761 5759 5758 5757 5757 5757 5757 5757 5758 5759 5760 5761 5763 5764 5766 5767 5768 5769 5770 5770 5771 5771 5771 5771 5771 5770 5770 5769 5768 5767 5766 5764 5763
5787 5783 5780 5777 5775 5772 5769 5767 5764 5762 5760 5758 5757 5755 5754 5754 5754 5754 5754 5755 5756 5758 5759 5761 5762 5763 5764 5766 5766 5767 5768 5768 5768 5768 5768 5767 5767 5766 5765 5764 5763 5761 5759
5790 5787 5783 5780 5777 5774 5771 5768 5765 5763 5760 5758 5756 5755 5753 5752 5752 5751 5752 5752 5754 5755 5757 5758 5759 5761 5762 5763 5764 5764 5765 5765 5765 5765 5765 5765 5764 5763 5762 5761 5760 5758 5756
5794 5790 5787 5783 5780 5777 5774 5770 5767 5764 5762 5759 5757 5755 5754 5752 5751 5751 5751 5752 5752 5754 5755 5756 5758 5759 5760 5761 5761 5762 5763 5763 5763 5763 5763 5762 5762 5761 5760 5759 5757 5755 5753
5797 5793 5790 5787 5783 5780 5777 5773 5770 5767 5764 5761 5759 5757 5755 5754 5753 5752 5752 5752 5753 5754 5755 5756 5757 5758 5759 5759 5760 5761 5761 5761 5761 5761 5761 5760 5760 5759 5758 5757 5755 5753 5751
5800 5797 5793 5790 5787 5783 5780 5777 5773 5771 5767 5765 5762 5760 5758 5756 5755 5755 5754 5754 5755 5755 5756 5757 5757 5758 5758 5759 5760 5760 5761 5761 5761 5760 5760 5760 5759 5758 5757 5756 5754 5752 5750
5804 5800 5797 5794 5790 5787 5784 5780 5777 5774 5771 5768 5766 5764 5762 5760 5759 5758 5757 5757 5757 5757 5758 5758 5759 5759 5759 5760 5760 5761 5761 5761 5761 5760 5760 5759 5759 5758 5757 5755 5753 5751 5749
5807 5804 5801 5798 5794 5791 5788 5785 5781 5778 5775 5773 5771 5768 5767 5765 5764 5763 5762 5761 5761 5761 5761 5761 5761 5761 5761 5761 5762 5762 5762 5762 5761 5761 5760 5760 5759 5758 5757 5755 5754 5751 5749
5811 5808 5804 5801 5798 5795 5792 5789 5786 5783 5780 5778 5775 5774 5772 5770 5769 5767 5766 5765 5765 5764 5764 5764 5764 5764 5764 5764 5764 5764 5764 5763 5763 5762 5762 5761 5760 5759 5757 5756 5754 5752 5749
5814 5811 5808 5805 5802 5799 5796 5793 5790 5787 5785 5782 5780 5778 5776 5775 5773 5772 5771 5770 5769 5768 5768 5768 5767 5767 5767 5767 5766 5766 5766 5765 5765 5764 5763 5762 5761 5760 5758 5757 5755 5752 5750
5816 5813 5811 5808 5805 5802 5799 5797 5794 5791 5789 5786 5784 5782 5781 5779 5778 5776 5775 5774 5773 5772 5772 5771 5771 5770 5770 5770 5769 5769 5768 5767 5767 5766 5765 5764 5762 5761 5759 5758 5756 5753 5751
5818 5815 5813 5810 5808 5805 5802 5800 5797 5795 5793 5790 5788 5786 5785 5783 5782 5780 5779 5778 5777 5776 5775 5775 5774 5774 5773 5772 5772 5771 5770 5769 5769 5767 5766 5765 5764 5762 5760 5759 5756 5754 5751
5818 5816 5814 5812 5809 5807 5805 5802 5800 5798 5796 5794 5792 5790 5788 5786 5785 5784 5783 5781 5780 5779 5779 5778 5777 5776 5776 5775 5774 5773 5772 5771 5770 5769 5768 5767 5765 5763 5761 5759 5757 5755 5752
5818 5816 5814 5812 5810 5808 5806 5804 5802 5800 5798 5796 5794 5793 5791 5789 5788 5787 5785 5784 5783 5782 5781 5780 5779 5779 5778 5777 5776 5775 5774 5773 5772 5771 5769 5768 5766 5764 5762 5760 5758 5755 5753
5816 5815 5813 5811 5810 5808 5806 5805 5803 5801 5799 5797 5796 5794 5793 5792 5790 5789 5788 5787 5785 5784 5783 5782 5782 5781 5780 5779 5778 5777 5776 5775 5773 5772 5770 5769 5767 5765 5763 5761 5758 5756 5753